Weather History for KLAW - April, 2013

Change the Weather History Date:

Sunday, April 28, 2013

  Actual Average Record
Temperature  
Mean Temperature 66 °F -  
Max Temperature 86 °F 75 °F 90 °F (1948)
Min Temperature 45 °F 51 °F 36 °F (1965)
Growing Degree Days 16 (Base 50)    
Moisture  
Dew Point 50 °F    
Average Humidity 63    
Maximum Humidity 97    
Minimum Humidity 25    
Precipitation  
Precipitation 0.00 in - - ()
Sea Level Pressure  
Sea Level Pressure 29.92 in    
Wind  
Wind Speed 4 mph (SSE)    
Max Wind Speed 14 mph    
Max Gust Speed 18 mph    
Visibility 10 miles    
Events      
Averages and records for this station are not official NWS values.
T = Trace of Precipitation, MM = Missing Value Source: NWS Daily Summary

Daily Weather History Graph

Daily Weather History Graph

Search for Another Location

Airport or City:

Trip Planner

Search our weather history database for the weather conditions in past years. The results will help you decide how hot, cold, wet, or windy it might be!

Date:

Astronomy

Apr. 28, 2013 Rise Set
Actual Time 6:46 AM CDT 8:16 PM CDT
Civil Twilight 6:19 AM CDT 8:43 PM CDT
Nautical Twilight 5:47 AM CDT 9:15 PM CDT
Astronomical Twilight 5:14 AM CDT 9:48 PM CDT
Moon 11:43 PM CDT (4/28) 9:09 AM CDT (4/28)
Length of Visible Light 14h 23m
Length of Day
13h 29m
Waning Gibbous, 88% of the Moon is Illuminated
Apr 28
Waning Gibbous
May 2
Last Quarter
May 9
New
May 17
First Quarter
May 24
Full

Hourly Weather History & Observations

Time (CDT) Temp. Dew Point Humidity Pressure Visibility Wind Dir Wind Speed Gust Speed Precip Events Conditions
12:53 AM 50.0 °F 48.0 °F 93% 30.00 in 10.0 mi Calm Calm - N/A   Clear
1:53 AM 46.0 °F 44.1 °F 93% 30.00 in 9.0 mi Calm Calm - N/A   Clear
2:53 AM 48.0 °F 44.1 °F 86% 29.99 in 10.0 mi ESE 3.5 mph - N/A   Clear
3:53 AM 45.0 °F 44.1 °F 97% 30.00 in 9.0 mi Calm Calm - N/A   Clear
4:53 AM 48.0 °F 46.0 °F 93% 30.00 in 8.0 mi ESE 4.6 mph - N/A   Clear
5:53 AM 48.0 °F 46.0 °F 93% 30.00 in 7.0 mi Calm Calm - N/A   Clear
6:53 AM 46.9 °F 45.0 °F 93% 30.01 in 8.0 mi ESE 3.5 mph - N/A   Clear
8:53 AM 55.0 °F 52.0 °F 89% 30.03 in 10.0 mi South 3.5 mph - N/A   Clear
9:53 AM 61.0 °F 55.0 °F 81% 30.01 in 10.0 mi Variable 3.5 mph - N/A   Clear
10:53 AM 66.9 °F 54.0 °F 63% 30.00 in 10.0 mi SW 3.5 mph - N/A   Clear
11:53 AM 73.9 °F 53.1 °F 48% 29.98 in 10.0 mi South 5.8 mph - N/A   Clear
12:53 PM 75.9 °F 51.1 °F 42% 29.95 in 10.0 mi Variable 5.8 mph - N/A   Clear
1:53 PM 80.1 °F 46.0 °F 30% 29.91 in 10.0 mi Variable 5.8 mph - N/A   Clear
2:53 PM 82.9 °F 48.0 °F 29% 29.89 in 10.0 mi South 10.4 mph 16.1 mph N/A   Clear
3:53 PM 84.0 °F 46.9 °F 27% 29.84 in 10.0 mi SSE 8.1 mph 18.4 mph N/A   Clear
4:53 PM 86.0 °F 46.0 °F 25% 29.81 in 10.0 mi South 11.5 mph - N/A   Clear
5:53 PM 84.0 °F 50.0 °F 31% 29.80 in 10.0 mi SSE 13.8 mph - N/A   Clear
6:53 PM 82.9 °F 51.1 °F 33% 29.78 in 10.0 mi SSE 10.4 mph - N/A   Clear
7:53 PM 78.1 °F 53.1 °F 42% 29.78 in 10.0 mi SE 8.1 mph - N/A   Clear
8:53 PM 73.0 °F 55.9 °F 55% 29.80 in 10.0 mi SE 9.2 mph - N/A   Clear
9:53 PM 72.0 °F 57.9 °F 61% 29.82 in 10.0 mi SE 10.4 mph - N/A   Clear
10:53 PM 70.0 °F 61.0 °F 73% 29.83 in 10.0 mi ESE 8.1 mph - N/A   Clear
11:53 PM 68.0 °F 60.1 °F 76% 29.82 in 10.0 mi SE 8.1 mph - N/A   Clear